Miscellaneous Local Product
Issued by NWS Hastings, NE

Home | Current Version | Previous Version | Text Only | Print | Product List | Glossary Off
Versions: 1 2 3 4 5 6 7 8 9 10 11 12 13 14 15 16 17 18 19 20 21 22 23 24 25 26 27 28 29 30 31 32 33 34 35 36 37 38 39 40 41 42 43 44 45 46 47 48 49 50

268
AXUS43 KGID 300402
MISGRI

GID CWA HOURLY WEATHER ROUNDUP
NATIONAL WEATHER SERVICE HASTINGS NE
1100 PM CDT WED MAR 29 2017

NOTE: "FAIR" INDICATES FEW OR NO CLOUDS BELOW 12,000 FEET WITH NO
SIGNIFICANT WEATHER AND/OR OBSTRUCTIONS TO VISIBILITY.

...SOUTH CENTRAL NEBRASKA...

CITY           SKY/WX    TMP DP  RH WIND       PRES   REMARKS
GRAND ISLAND   CLOUDY    38  38 100 N18G29    29.85S WCI  28
HASTINGS       CLOUDY    39  37  92 N21G29    29.83S WCI  29
KEARNEY        MOCLDY    37  34  87 N21       29.86F WCI  27
ORD            CLOUDY    39  35  86 N15       29.90F WCI  31
YORK           CLOUDY    39  39 100 NE21G26   29.81F WCI  29
AURORA         RAIN      38  38 100 N20       29.82S WCI  29
LEXINGTON      CLOUDY    40  37  89 N21       29.89F WCI  30
HOLDREGE       RAIN      38  36  92 N18       29.85F WCI  29
HEBRON         LGT RAIN  40  39  94 N16G23    29.75F WCI  32

...NEBRASKA PANHANDLE...

CITY           SKY/WX    TMP DP  RH WIND       PRES   REMARKS
CHADRON        CLEAR     44  37  76 CALM      29.94S
ALLIANCE       CLEAR     34  32  92 SE3       29.94S
SCOTTSBLUFF    CLEAR     39  35  86 SE6       29.96R WCI  35
SIDNEY         CLEAR     30  30 100 CALM      29.96S

...WESTERN AND NORTH CENTRAL NEBRASKA...

CITY           SKY/WX    TMP DP  RH WIND       PRES   REMARKS
VALENTINE      CLOUDY    42  34  73 E8        29.96F
AINSWORTH      CLOUDY    40  37  92 NE9       29.96F WCI  33
ONEILL         CLOUDY    38  37  98 NE9       29.96F WCI  31
BROKEN BOW     LGT RAIN  39  36  89 NE13      29.91F WCI  31
IMPERIAL       CLEAR     37  34  89 NW9       29.93F WCI  30
NORTH PLATTE   CLOUDY    40  35  83 NE10      29.92F WCI  33
MCCOOK         MOCLDY    40  38  93 N10       29.90S WCI  33

...EASTERN NEBRASKA...

CITY           SKY/WX    TMP DP  RH WIND       PRES   REMARKS
NORFOLK        LGT RAIN  39  36  89 NE13      29.88F WCI  31
SO SIOUX CITY  CLOUDY    41  38  89 E18G29    29.88F
TEKAMAH        CLOUDY    42  38  85 NE15G24   29.84R
COLUMBUS       CLOUDY    39  36  87 NE17      29.85S WCI  30
ALBION         CLOUDY    39  36  89 N9        29.89F WCI  33
OMAHA EPPLEY   CLOUDY    44  38  79 NE16G29   29.81S
OFFUTT AFB     LGT RAIN  43  40  89 NE18G25   29.77F
MILLARD        CLOUDY    45  41  87 NE8G17    29.80F
LINCOLN        LGT RAIN  42  40  92 NE18G24   29.77F FOG
NEBRASKA CITY  CLOUDY    43  43 100 NE14      29.73F
BEATRICE       MIX PCPN  42  42  99 NE15G21   29.71F
FALLS CITY     CLOUDY    49  48  97 NE9       29.68F

...NORTHERN KANSAS...

CITY           SKY/WX    TMP DP  RH WIND       PRES   REMARKS
GOODLAND       CLEAR     37  35  92 NW14      29.90F WCI  28
HILL CITY      LGT RAIN  40  39  97 N15       29.85F WCI  32
NORTON         CLOUDY    39  36  87 N17G24    29.84  WCI  30
PHILLIPSBURG   DRIZZLE   39  39 100 N17G23    29.84F WCI  30
HAYS             N/A     40  37  89 N26G35    29.79F WCI  29
RUSSELL        CLOUDY    40  39  97 N23       29.75F WCI  30
CONCORDIA      LGT RAIN  42  42 100 N17G24    29.70F
SALINA         RAIN      45  42  89 NW20      29.67S
TOPEKA         CLOUDY    55  55 100 E9        29.60F



USA.gov is the U.S. government's official web portal to all federal, state and local government web resources and services.